Regional Weather Roundup
Issued by NWS

Home | Current Version | Previous Version | Graphics & Text | Print | Product List | Glossary On
Versions: 1 2 3 4 5 6 7 8 9 10 11 12 13 14 15 16 17 18 19 20 21 22 23 24 25 26 27 28 29 30 31 32 33 34 35 36 37 38 39 40 41 42 43 44 45 46 47 48 49 50
735
ASUS43 KOAX 030402
RWRNE

WEATHER ROUNDUP FOR NEBRASKA
NATIONAL WEATHER SERVICE OMAHA NE
1000 PM CST FRI DEC 02 2016

NOTES: SATELLITE DATA IS BEING USED TO AUGMENT CLOUD COVER ABOVE
       12000 FEET.
       "FAIR" INDICATES FEW OR NO CLOUDS BELOW 12,000 FEET WITH NO
       SIGNIFICANT WEATHER AND/OR OBSTRUCTIONS TO VISIBILITY.

  * THESE STATIONS DO NOT REPORT WEATHER SUCH AS RAIN...SNOW OR FOG.

NEZ001>004-019>022-054>056-030500-
NEBRASKA PANHANDLE

CITY           SKY/WX    TMP DP  RH WIND       PRES   REMARKS
ALLIANCE       CLEAR     16  12  84 S5        30.18F WCI   9
CHADRON        CLOUDY    20  14  77 W7        30.18F WCI  11
KIMBALL        CLOUDY    24  22  92 S3        30.17S
SIDNEY         CLEAR     18  14  84 SW7       30.19F WCI   9
$$

NEZ057>060-069>072-079>082-030500-
SOUTHWEST NEBRASKA

CITY           SKY/WX    TMP DP  RH WIND       PRES   REMARKS
IMPERIAL       CLOUDY    28  21  75 CALM      30.24S
LEXINGTON      CLEAR     23  21  90 CALM      30.27S
MCCOOK         CLOUDY    28  20  71 SW3       30.27S
$$

NEZ005>010-023>029-035>040-094-030500-
NORTH CENTRAL NEBRASKA

CITY           SKY/WX    TMP DP  RH WIND       PRES   REMARKS
VALENTINE      CLEAR     21  17  84 SW6       30.22S WCI  13
AINSWORTH      CLEAR     23  21  92 S7        30.23S WCI  14
BROKEN BOW     CLEAR     24  21  88 CALM      30.25F
ORD            CLEAR     22  17  81 S6        30.27S WCI  14
$$

NEZ041-046>049-061>064-073>077-083>087-030500-
SOUTH CENTRAL NEBRASKA

CITY           SKY/WX    TMP DP  RH WIND       PRES   REMARKS
GRAND ISLAND   CLEAR     24  22  91 CALM      30.30S
AURORA         CLEAR     26  24  91 E5        30.30F WCI  20
HASTINGS       CLEAR     23  19  85 CALM      30.31S
HEBRON         CLOUDY    25  22  86 CALM      30.33R
HOLDREGE       CLEAR     22  18  87 CALM      30.27F
KEARNEY *      CLEAR     27  21  80 CALM      30.29S
YORK           CLEAR     27  25  93 E3        30.31F
$$

NEZ011>018-030>034-042>045-030500-
NORTHEAST NEBRASKA

CITY           SKY/WX    TMP DP  RH WIND       PRES   REMARKS
NORFOLK        CLEAR     24  20  84 S3        30.29S
ALBION         CLEAR     22  20  91 CALM      30.30S
BLAIR          CLEAR     32  28  83 CALM      30.32S
FREMONT        CLEAR     27  25  91 CALM      30.33S
TEKAMAH        PTCLDY    33  26  75 N5        30.33F WCI  29
WAYNE          CLEAR     23  22  94 SW6       30.31R WCI  16
$$

NEZ050>053-065>068-078-088>093-030500-
SOUTHEAST NEBRASKA

CITY           SKY/WX    TMP DP  RH WIND       PRES   REMARKS
LINCOLN        CLEAR     27  24  89 N6        30.34F WCI  20
OMAHA EPPLEY   MOCLDY    31  25  78 CALM      30.34S
BEATRICE       CLEAR     29  25  85 CALM      30.33R
FALLS CITY       N/A    N/A N/A N/A MISG      30.33R
NEBRASKA CITY  CLOUDY    31  26  81 CALM      30.33R
$$

NEZ044-045-051>053-067-030500-
OMAHA AREA

CITY           SKY/WX    TMP DP  RH WIND       PRES   REMARKS
OMAHA EPPLEY   MOCLDY    31  25  78 CALM      30.34S
BLAIR          CLEAR     32  28  83 CALM      30.32S
FREMONT        CLEAR     27  25  91 CALM      30.33S
MILLARD        CLEAR     29  27  90 CALM      30.34S
OFFUTT AFB     CLEAR     23  23  99 CALM      30.33S
WAHOO          FAIR      27  25  91 CALM      30.33S
$$




USA.gov is the U.S. government's official web portal to all federal, state and local government web resources and services.